Location: Allos
(44.2333°N, 6.6333°E)
Time: 22:46:09
(UTC+00:00)

SAR-Lupe-4 - Pass Details

Date: 16 April 2021
Orbit: 483 x 483 km, 98.2° (Epoch: 13 April)

Event Time Altitude Azimuth Distance (km) Brightness Sun altitude
Rises 20:09:18 0° 351° (N) 2,559 7.9 -18.5°
Reaches altitude 10° 20:12:48 10° 314° (NW) 1,672 7.5 -19.0°
Maximum altitude 20:13:46 11° 298° (WNW) 1,612 7.4 -19.2°
Drops below altitude 10° 20:14:45 10° 282° (WNW) 1,668 7.2 -19.3°
Sets 20:18:14 0° 245° (WSW) 2,542 7.6 -19.8°
